Tracking 33188 objects as of 10-Feb-2026
HD Live streaming from Space Station
objects crossing your sky now

THORAD AGENA D DEB

Track THORAD AGENA D DEB now!
10-day predictions


NORAD ID: 4171
Int'l Code: 1969-082AP
Perigee: 746.9 km
Apogee: 801.0 km
Inclination: 70.1 °
Period: 100.2 minutes
Semi major axis: 7144 km
RCS: 0.0461 m2 (small)
Launch date: September 30, 1969
Source: United States (US)
Launch site: AIR FORCE WESTERN TEST RANGE (AFWTR)

Note: This is SATELLITE DEBRIS
Your satellite tracking list
Your tracking list is empty




NASA's NSSDC Master Catalog

Two Line Element Set (TLE):
1  4171U 69082AP  26040.93481684  .00001277  00000-0  44201-3 0  9994
2  4171  70.0748 104.4230 0037827 292.9407  66.7731 14.37493862920902
Source of the keplerian elements: AFSPC